(345) Tercidina
ephemeris date magn radius delta ra dec elong phase
Today19 Jul 202514.12.401 AU2.581 AU12h15m-02°32'68.4°23.2°
Opposition22 Jul 202612.32.435 AU1.444 AU19h55m-03°54'163.4°6.8°
(345) Tercidina - 2025-07-19
astro.vanbuitenen.nl


 
-1 year
-1 month
-1 day
Now
+1 day
+1 month
+1 year

The interactive orbit chart above shows the body's path through the solar system and its position at the given date. Green and blue lines are shown perpendicular to the ecliptic plane: Green if the path is above the ecliptic plane, blue if it is below. (Left-click and drag to rotate the view; Right-click and drag to move the view; Use scroll wheel to zoom in our out.)

The orbital elements of Tercidina are:

            e (Eccentricity)                : 0.0613536
            a (Semimajor axis)              : 2.3250137
            i (Inclination)                 : 9.74417
            Ω (Longitude of ascending node) : 212.57641
            ω (Argument of perihelion)      : 230.14242
            M (Mean anomaly)                : 98.25955
            Epoch                           : 2025 May 05

            L (Longitude of perihelion)     : 262.30870
            B (Latitude of perihelion)      : -7.46511
            P (Orbital period in years)     : 3.55            
        

The light curve chart below shows the estimated development of the minor planet's magnitude.


The all-sky chart below shows the path of the minor planet over the same period as the light curve. The current position is marked yellow.





The following chart shows the path of the minor planet in the next few days. The field of view is optimized for (~10x50) binoculars and finderscopes. A more printer-friendly version of the same chart can be found below.




Ephemerides:
Date       Time       RA (2000)    DEC (2000)    delta   radius  elong  phase   PA    magn
2025-07-19 00:00 UT   12 15 47.3   -02 32 22     2.581    2.401   68.4   23.2   114   14.1 
2025-07-19 03:48 UT   12 16 00.6   -02 33 22     2.583    2.401   68.3   23.2   114   14.1 
2025-07-20 00:00 UT   12 17 12.0   -02 38 39     2.593    2.401   67.8   23.1   114   14.1 
2025-07-21 00:00 UT   12 18 37.1   -02 44 59     2.605    2.402   67.2   23.0   114   14.1 
2025-07-22 00:00 UT   12 20 02.7   -02 51 23     2.617    2.402   66.6   22.8   114   14.1 
2025-07-23 00:00 UT   12 21 28.7   -02 57 51     2.629    2.403   66.0   22.7   114   14.1 
2025-07-24 00:00 UT   12 22 55.1   -03 04 23     2.641    2.404   65.5   22.6   114   14.1 
2025-07-25 00:00 UT   12 24 21.9   -03 10 58     2.653    2.404   64.9   22.5   114   14.2 
2025-07-26 00:00 UT   12 25 49.1   -03 17 37     2.664    2.405   64.3   22.4   113   14.2 
2025-07-27 00:00 UT   12 27 16.7   -03 24 20     2.676    2.405   63.7   22.2   113   14.2 
2025-07-28 00:00 UT   12 28 44.7   -03 31 05     2.687    2.406   63.1   22.1   113   14.2 
2025-07-29 00:00 UT   12 30 13.1   -03 37 54     2.699    2.406   62.6   22.0   113   14.2 
2025-07-30 00:00 UT   12 31 41.9   -03 44 46     2.710    2.407   62.0   21.9   113   14.2 
2025-07-31 00:00 UT   12 33 11.0   -03 51 41     2.722    2.407   61.4   21.7   113   14.2 
2025-08-01 00:00 UT   12 34 40.5   -03 58 39     2.733    2.408   60.9   21.6   113   14.2 
2025-08-02 00:00 UT   12 36 10.3   -04 05 40     2.744    2.409   60.3   21.5   113   14.2 
2025-08-03 00:00 UT   12 37 40.5   -04 12 44     2.756    2.409   59.7   21.3   113   14.2 
2025-08-04 00:00 UT   12 39 11.0   -04 19 50     2.767    2.410   59.2   21.2   113   14.2 
2025-08-05 00:00 UT   12 40 41.9   -04 26 59     2.778    2.410   58.6   21.1   113   14.2 
2025-08-06 00:00 UT   12 42 13.1   -04 34 10     2.789    2.411   58.0   20.9   113   14.2 
2025-08-07 00:00 UT   12 43 44.7   -04 41 24     2.800    2.411   57.5   20.8   113   14.2 
2025-08-08 00:00 UT   12 45 16.5   -04 48 39     2.811    2.412   56.9   20.6   113   14.2 
2025-08-09 00:00 UT   12 46 48.7   -04 55 57     2.821    2.412   56.4   20.5   113   14.2 


    Terminology:
            
    delta:  distance between minor planet and earth in AU
    radius: distance between minor planet and sun in AU
    magn:   magnitude (brightness) estimate    
    ra:     right ascension in hours (24h = 360deg)
    dec:    declination in degrees
    elong:  elongation in degrees (angle sun-earth-minor planet)    
    phase:  phase angle in degrees (angle sun-minor planet-earth)        
    AU:     Astronomical Unit (mean distance between earth and sun: 149597870.7 km
    

Orbital elements provided by the MPC (Minor Planet Center).
Calculations by a modified version of AAPlus, a C# implementation of the AA+ project by PJ Naughter from the algorithms presented in the book "Astronomical Algorithms" by Jean Meeus.
NGC2000 dso catalog and star labels from VizieR as provided by the Strasbourg astronomical Data Center.
Tycho2 catalog from the ESO archive.